DateTimeUTC,F1_A11,F1_S11,BsB_S11,BsG_S11,BsR_S11,BbsB_S11,BbsG_S11,BbsR_S11,BaB_A11,BaG_A11,BaR_A11,Tu_S11,T_S11,Uu_S11,U_S11,P_S11,T1_A11
2021-11-02T21:00:00Z,00000200,21000000,,,,,,,-000.13,0000.21,0000.10,18.6,25.5,,00.0,0641.9,31.1
2021-11-02T21:01:00Z,00000200,21000000,,,,,,,0000.16,0000.30,0000.14,18.6,25.5,,00.0,0641.9,31.0
2021-11-02T21:02:00Z,00000200,21000000,,,,,,,0000.01,-000.44,-000.30,18.5,25.4,,00.0,0641.9,31.0
2021-11-02T21:03:00Z,00000200,61000000,,,,,,,0000.31,0000.36,0000.12,18.5,25.4,,00.0,0641.9,31.0
2021-11-02T21:04:00Z,00000200,41000000,-000.44,0000.18,0000.02,-000.80,-000.15,-000.23,0000.47,0000.39,0000.53,18.5,25.2,00.1,00.1,0642.7,31.1
2021-11-02T21:05:00Z,00000200,01000000,-000.11,0000.23,0000.01,0000.35,0000.09,0000.05,-000.03,0000.06,0000.36,18.6,25.2,00.1,00.0,0642.8,31.1
2021-11-02T21:06:00Z,00000200,01000000,0000.57,-000.20,0000.20,0000.00,0000.29,0000.03,0000.27,0000.33,-000.22,18.7,25.2,00.2,00.1,0642.8,31.1
2021-11-02T21:07:00Z,00000200,01000000,0000.59,0000.27,0000.44,-000.38,-000.26,0000.36,0000.44,0000.47,0000.55,18.8,25.2,00.1,00.1,0642.8,31.1
2021-11-02T21:08:00Z,00000200,01000000,0000.98,-000.35,0000.30,-000.23,0000.02,0000.01,0000.06,0000.32,0000.04,18.8,25.2,00.2,00.1,0642.8,31.1
2021-11-02T21:09:00Z,00000200,01000000,0000.93,0000.15,0000.21,0000.26,-000.15,0000.08,0000.35,0000.03,0000.32,18.9,25.3,00.1,00.1,0642.8,31.1
2021-11-02T21:10:00Z,00000200,01000000,0000.69,0000.38,0000.38,0000.16,0000.21,0000.08,0000.16,0000.40,0000.09,19.0,25.3,00.1,00.1,0642.8,31.1
2021-11-02T21:11:00Z,00000200,01000000,0001.30,0000.18,0000.25,-000.48,0000.17,-000.12,0000.41,0000.11,0000.20,19.1,25.3,00.2,00.1,0642.8,31.2
2021-11-02T21:12:00Z,00000200,01000000,0000.56,0000.06,0000.14,0000.28,-000.03,0000.02,-000.02,-000.04,-000.02,19.1,25.4,00.2,00.1,0642.8,31.1
2021-11-02T21:13:00Z,00000200,01000000,0000.71,0000.09,0000.11,0000.62,0000.02,-000.04,0000.42,0000.46,0000.29,19.0,25.4,00.2,00.1,0642.7,31.1
2021-11-02T21:14:00Z,00000200,01000000,-000.28,0000.17,-000.23,0000.61,0000.14,-000.09,0000.17,0000.13,-000.00,19.0,25.3,00.2,00.1,0642.7,31.1
2021-11-02T21:15:00Z,00000200,01000000,0000.18,-000.06,0000.14,0000.35,0000.12,-000.10,-000.11,0000.18,0000.03,18.9,25.3,00.3,00.2,0642.7,31.1
2021-11-02T21:16:00Z,00000200,01000000,-000.58,0000.01,0000.14,-000.06,0000.17,0000.12,0000.60,0000.16,0000.28,18.9,25.3,00.2,00.2,0642.7,31.1
2021-11-02T21:17:00Z,00000200,01000000,-000.12,0000.39,0000.24,-000.20,0000.04,0000.04,-000.18,-000.18,0000.11,18.8,25.2,00.2,00.2,0642.7,31.1
2021-11-02T21:18:00Z,00000200,01000000,0000.43,-000.07,-000.09,0000.16,0000.09,-000.14,0000.03,0000.26,-000.13,18.8,25.2,00.2,00.1,0642.7,31.1
2021-11-02T21:19:00Z,00000200,01000000,0000.35,-000.04,0000.10,0000.47,-000.06,-000.01,0000.12,0000.03,0000.22,18.8,25.2,00.2,00.1,0642.7,31.1
2021-11-02T21:20:00Z,00000200,01000000,-000.25,0000.04,0000.01,-000.15,0000.04,-000.10,0000.08,-000.04,0000.31,18.8,25.2,00.2,00.1,0642.7,31.1
2021-11-02T21:21:00Z,00000200,01000000,-000.04,0000.20,0000.22,0000.32,-000.08,0000.03,0000.41,0000.47,0000.13,18.9,25.2,00.2,00.1,0642.7,31.1
2021-11-02T21:22:00Z,00000200,01000000,-000.31,0000.42,0000.38,0000.13,-000.19,0000.38,0000.40,0000.17,-000.24,18.9,25.3,00.2,00.1,0642.7,31.1
2021-11-02T21:23:00Z,00000200,01000000,0000.84,0000.05,0000.03,-000.79,-000.00,-000.11,-000.16,0000.12,0000.23,19.0,25.3,00.2,00.2,0642.7,31.1
2021-11-02T21:24:00Z,00000200,01000000,-000.08,-000.03,0000.50,0000.16,0000.02,0000.21,0000.35,0000.03,0000.16,19.1,25.3,00.2,00.1,0642.7,31.1
2021-11-02T21:25:00Z,00000200,01000000,-000.13,0000.24,0000.45,-000.65,-000.08,0000.06,0000.07,0000.48,0000.53,19.2,25.4,00.2,00.1,0642.7,31.1
2021-11-02T21:26:00Z,00000200,01000000,-000.19,0000.28,0000.36,-000.12,0000.35,0000.13,0000.38,0000.13,0000.04,19.2,25.4,00.2,00.1,0642.7,31.1
2021-11-02T21:27:00Z,00000200,01000000,0000.47,0000.20,0000.30,-000.33,0000.57,0000.20,-000.40,-000.07,-000.08,19.2,25.4,00.1,00.1,0642.7,31.1
2021-11-02T21:28:00Z,00000200,01000000,0000.63,0000.16,0000.23,0000.37,0000.26,0000.21,0000.48,0000.46,0000.20,19.1,25.4,00.2,00.1,0642.7,31.1
2021-11-02T21:29:00Z,00000200,01000000,-000.18,0000.42,0000.68,0000.34,0000.04,0000.48,0000.21,-000.05,0000.26,19.0,25.4,00.2,00.2,0642.7,31.1
2021-11-02T21:30:00Z,00000200,01000000,-000.28,0000.06,-000.00,0000.31,-000.07,0000.15,0000.47,0000.48,0000.01,19.0,25.3,00.2,00.1,0642.7,31.1
2021-11-02T21:31:00Z,00000200,01000000,0000.79,0000.27,0000.06,-000.63,-000.07,-000.07,-000.02,-000.21,0000.01,18.9,25.3,00.2,00.1,0642.7,31.1
2021-11-02T21:32:00Z,00000200,01000000,0000.49,0000.49,0000.10,0000.24,-000.22,0000.27,0000.08,0000.01,-000.12,18.8,25.3,00.2,00.1,0642.7,31.1
2021-11-02T21:33:00Z,00000200,01000000,0000.09,0000.16,0000.29,-000.00,-000.12,0000.02,-000.07,-000.03,0000.26,18.8,25.2,00.2,00.1,0642.6,31.1
2021-11-02T21:34:00Z,00000200,01000000,0000.38,0000.24,-000.02,0000.13,-000.05,-000.11,0000.71,0000.40,0000.59,18.8,25.2,00.2,00.1,0642.6,31.1
2021-11-02T21:35:00Z,00000200,01000000,0000.73,0000.03,0000.25,0000.33,0000.16,-000.03,-000.21,0000.48,-000.13,18.8,25.2,00.2,00.1,0642.6,31.1
2021-11-02T21:36:00Z,00000200,01000000,0000.47,-000.16,0000.51,-000.92,0000.21,0000.05,0000.19,0000.06,0000.15,18.9,25.3,00.2,00.1,0642.6,31.1
2021-11-02T21:37:00Z,00000200,01000000,0000.20,0000.22,0000.31,0000.52,0000.23,-000.02,0000.07,0000.33,-000.09,19.0,25.3,00.2,00.1,0642.6,31.1
2021-11-02T21:38:00Z,00000200,01000000,0000.14,0000.14,0000.10,0000.31,0000.03,-000.22,0000.40,0000.11,0000.42,19.1,25.3,00.2,00.1,0642.6,31.1
2021-11-02T21:39:00Z,00000200,01000000,0000.59,0000.01,-000.11,0000.56,-000.02,-000.12,0000.27,0000.38,0000.21,19.1,25.4,00.2,00.1,0642.6,31.1
2021-11-02T21:40:00Z,00000200,01000000,-000.30,-000.06,0000.15,0000.01,0000.13,-000.17,0000.12,0000.06,-000.01,19.2,25.4,00.2,00.1,0642.6,31.1
2021-11-02T21:41:00Z,00000200,01000000,-000.17,0000.13,0000.09,-000.41,0000.01,0000.14,0000.25,0000.15,0000.47,19.2,25.4,00.3,00.2,0642.6,31.1
2021-11-02T21:42:00Z,00000200,01000000,0000.11,0000.00,0000.29,0000.38,0000.17,0000.25,-000.14,0000.23,-000.10,19.1,25.4,00.2,00.1,0642.6,31.1
2021-11-02T21:43:00Z,00000200,01000000,0000.67,0000.15,-000.05,0001.10,0000.13,0000.06,0000.84,0000.13,-000.05,19.1,25.4,00.2,00.1,0642.5,31.1
2021-11-02T21:44:00Z,00000200,01000000,0000.08,0000.21,0000.28,-000.00,-000.04,0000.06,-000.22,0000.01,0000.23,19.0,25.3,00.2,00.2,0642.5,31.1
2021-11-02T21:45:00Z,00000200,01000000,0000.17,0000.57,0000.07,0000.04,0000.13,-000.12,0000.03,0000.15,-000.12,19.0,25.3,00.2,00.1,0642.5,31.1
2021-11-02T21:46:00Z,00000200,01000000,0000.43,0000.30,0000.58,0000.11,-000.14,0000.12,0000.58,0000.53,0000.44,18.9,25.3,00.3,00.2,0642.5,31.1
2021-11-02T21:47:00Z,00000200,01000000,0000.90,0000.23,0000.26,-000.20,0000.01,0000.05,-000.15,0000.16,0000.01,18.8,25.3,00.3,00.2,0642.5,31.0
2021-11-02T21:48:00Z,00000200,01000000,0001.40,0000.13,0000.03,0000.14,-000.00,-000.06,0000.27,-000.12,0000.20,18.8,25.2,00.3,00.2,0642.5,31.1
2021-11-02T21:49:00Z,00000200,01000000,-000.37,0000.21,0000.81,-000.04,-000.09,0000.26,0000.10,-000.18,0000.04,18.8,25.2,00.3,00.2,0642.5,31.1
2021-11-02T21:50:00Z,00000200,01000000,0000.58,0000.47,0000.15,0000.13,0000.03,-000.11,-000.32,0000.08,0000.17,18.8,25.2,00.2,00.2,0642.6,31.1
2021-11-02T21:51:00Z,00000200,01000000,0000.33,0000.13,-000.03,-000.13,-000.04,0000.01,0000.89,0000.48,0000.12,18.9,25.2,00.3,00.2,0642.6,31.1
2021-11-02T21:52:00Z,00000200,01000000,0000.14,0000.24,0000.25,-000.01,0000.01,-000.43,0000.33,0000.29,0000.11,19.0,25.3,00.3,00.2,0642.6,31.1
2021-11-02T21:53:00Z,00000200,01000000,0000.90,0000.36,0000.08,0000.55,0000.04,0000.08,-000.16,0000.29,0000.69,19.1,25.3,00.2,00.2,0642.6,31.1
2021-11-02T21:54:00Z,00000200,01000000,-000.29,0000.30,0000.33,0000.43,0000.23,0000.01,0000.34,0000.09,-000.23,19.1,25.4,00.2,00.2,0642.6,31.1
2021-11-02T21:55:00Z,00000200,01000000,0000.10,0000.40,0000.32,0000.39,-000.10,0000.31,-000.01,0000.23,0000.26,19.2,25.4,00.3,00.2,0642.6,31.1
2021-11-02T21:56:00Z,00000200,01000000,0000.39,0000.18,0000.14,0000.19,-000.15,-000.23,0000.15,0000.13,-000.34,19.2,25.4,00.3,00.2,0642.6,31.1
2021-11-02T21:57:00Z,00000200,41000000,,,,,,,-000.23,-000.39,-000.03,19.2,25.5,00.9,00.6,0642.6,31.1
2021-11-02T21:58:00Z,00000200,61000000,,,,,,,0000.01,0000.12,0000.09,18.8,25.5,00.1,00.0,0641.6,31.1
2021-11-02T21:59:00Z,00000200,21000000,,,,,,,0000.36,-000.19,-000.03,18.8,25.5,,00.0,0641.6,31.1
